DELTA 1 DEB, 26701

Orbit data source: Space-Track

DELTA 1 DEB, 26701 is space debris in SSO originally from a launch on Thu, 12 Jun 1975 UTC launched from the Air Force Western Test Range (AFWTR). Debris objects in space refer to the collection of defunct objects orbiting the Earth. Examples of debris include non-operational satellites, rocket bodies, and fragments generated from explosions, collisions, or faulty payload assembly.

Loading next visibility...
Identifier
26701, 1975-052KB
Orbit
SSO
Country
Flag of USUS
Related business
Manufacturer
Unknown
Mission
Spacecraft
Bus & Motor
Unknown
Mass
Unknown
Launch date (UTC)
1975-06-12 (51 years ago)
Launch vehicle
Unknown
Launch site
Air Force Western Test Range (AFWTR)
Object type
Payload
Rocket body
Debris
Shape & HBR
Unknown shape, 0.1 m
Radar Cross Section
Medium (>0.1 m² and <1 m²)

Expand to show TLE details & history
Last TLE update: 2 days ago

TLE from 2 days ago
0 DELTA 1 DEB
1 26701U 75052KB  26171.12406506  .00000177  00000-0  26064-3 0  9992
2 26701  99.7591  41.1985 0256699 260.2592 254.9943 13.55395394262530
Epoch: 2026-06-20T02:58Z
TLE epoch observation values (Epoch: 2026-06-20T02:58:39.221Z)
Latitude
27.16933°
Longitude
-86.76955°
Altitude
1,109.603 km
Speed
7.273 km/s
True Right ascension
15h 04m 56s
True Declination
27° 02' 11"
Sunlit
Object was in daylight at epoch
Visualization orbit readout
Latitude
Unknown
Longitude
Unknown
Altitude
Unknown
Speed
Unknown
Apparent Right ascension
Unknown
Apparent Declination
Unknown
Sunlit
N/A
Visualization observer readout
Local Sidereal Time
17:31:15
Azimuth
Unknown
Elevation
Unknown
Doppler factor
Unknown
Orbital elements
Apogee altitude
1,240.442 km
Perigee altitude
859.095 km
Semi-major axis
7,427.905 km
Eccentricity
0.02567
Inclination
99.7591°
RAAN
41.1985°
Arg. of periapsis
260.2592°
True anomaly
252.1776°
Mean anomaly
254.9943°
Eccentric anomaly
253.58348°
Mean motion
3.39034 °/min
Orbital period
106.18 mins
BSTAR
0.00026064
Loading maneuver chart data...
Computing Atmospheric mass density...
Loading historical data...
Loading historical data...
Loading historical data...
Loading historical data...
Loading historical data...
Loading historical data...
Loading historical data...

Documentation

Showing up to 5 results
|